This is the latest recevied weather packets stored in our database for station/object K5GHS-1. If no packets are shown the sender has not sent any weather packets the latest 10 day(s).
| Time | Temp. | Humidity | Pressure | Rain* | Wind** | Luminosity | Snow |
|---|---|---|---|---|---|---|---|
| 1777063198 | 32.78° C | 53% | 1002.1 hPa | 0 mm | - | 266 W/m² | - |
| 1777062895 | 32.78° C | 53% | 1002.4 hPa | 0 mm | - | 643 W/m² | - |
| 1777062591 | 32.22° C | 52% | 1002.4 hPa | 0 mm | - | 239 W/m² | - |
| 1777062290 | 32.22° C | 52% | 1002.4 hPa | 0 mm | - | 588 W/m² | - |
| 1777061988 | 31.67° C | 55% | 1002.7 hPa | 0 mm | - | 642 W/m² | - |
| 1777061683 | 31.11° C | 55% | 1002.8 hPa | 0 mm | - | 123 W/m² | - |
| 1777061379 | 31.67° C | 53% | 1002.7 hPa | 0 mm | - | 666 W/m² | - |
| 1777061074 | 32.78° C | 53% | 1002.7 hPa | 0 mm | - | 701 W/m² | - |
| 1777060770 | 32.22° C | 55% | 1003 hPa | 0 mm | - | 684 W/m² | - |
| 1777060470 | 31.67° C | 54% | 1003.1 hPa | 0 mm | - | 323 W/m² | - |
| 1777060167 | 31.11° C | 55% | 1003.1 hPa | 0 mm | - | 637 W/m² | - |
| 1777059863 | 31.67° C | 55% | 1003 hPa | 0 mm | - | 652 W/m² | - |
| 1777059559 | 31.67° C | 55% | 1003.2 hPa | 0 mm | - | 677 W/m² | - |
| 1777059257 | 31.11° C | 56% | 1003.2 hPa | 0 mm | - | 751 W/m² | - |
| 1777058956 | 31.11° C | 59% | 1003 hPa | 0 mm | - | 745 W/m² | - |
| 1777058651 | 30.56° C | 57% | 1003.1 hPa | 0 mm | - | 179 W/m² | - |
| 1777058348 | 31.11° C | 58% | 1003.4 hPa | 0 mm | - | 595 W/m² | - |
| 1777058046 | 31.11° C | 57% | 1003.4 hPa | 0 mm | - | 563 W/m² | - |
| 1777057744 | 31.11° C | 58% | 1003.5 hPa | 0 mm | - | 665 W/m² | - |
| 1777057440 | 31.11° C | 57% | 1003.3 hPa | 0 mm | - | 196 W/m² | - |
| 1777057136 | 31.11° C | 57% | 1003.3 hPa | 0 mm | - | 707 W/m² | - |
| 1777056831 | 30.56° C | 58% | 1003.5 hPa | 0 mm | - | 756 W/m² | - |
| 1777056526 | 30.56° C | 60% | 1003.6 hPa | 0 mm | - | 726 W/m² | - |
| 1777056222 | 30.56° C | 57% | 1003.8 hPa | 0 mm | - | 710 W/m² | - |
| 1777055918 | 30.56° C | 59% | 1004 hPa | 0 mm | - | 755 W/m² | - |
* Rain latest hour (hover to see other rain measurements)
** Current wind speed in m/s (hover to see current wind gust speed)